Wind_Speed
20 19 21 23 25 26 28 29 29 30 30 29 30 31 32 33 34 35 37 38 38 38 38 37 37 36 36 37 37 37 36 34
20 22 23 24 25 26 27 28 28 29 30 31 34 35 36 37 39 40 40 41 42 42 42 41 41 41 41 41 41 42 42 41
21 23 25 26 27 28 29 31 32 33 35 37 38 39 40 41 42 42 43 43 44 44 46 47 47 47 47 47 46 46 46 47
25 26 27 29 31 32 33 34 36 38 39 40 41 43 44 46 46 46 46 47 48 49 49 49 50 51 51 51 50 50 50 50
28 29 31 32 33 35 37 38 40 42 44 44 46 48 50 50 51 50 50 50 50 50 50 50 50 50 50 50 51 51 51 52
31 34 35 36 37 39 40 40 42 44 46 47 49 51 52 52 53 53 54 54 54 54 54 53 52 52 52 53 53 53 54 54
34 36 37 39 41 42 43 44 46 47 48 50 51 53 54 56 56 56 56 55 55 54 54 53 52 51 51 52 53 54 54 55
36 38 39 40 42 44 46 48 49 50 51 52 54 56 58 59 61 61 60 58 56 54 53 52 51 51 52 53 54 55 56 57
41 42 43 44 46 48 50 51 53 54 55 56 58 59 60 60 60 58 59 58 55 55 55 55 55 53 53 52 53 54 55 56
43 46 47 49 49 51 53 53 53 54 53 54 56 59 59 58 56 54 53 53 51 50 50 49 49 50 49 51 52 53 54 56
43 46 49 51 52 53 53 54 54 54 55 56 57 57 56 55 53 52 53 51 50 50 53 52 51 51 52 54 54 56 58 60
46 49 50 51 53 55 56 56 56 57 59 59 59 58 58 58 57 56 54 52 53 54 55 57 55 55 55 56 56 58 59 62
51 52 53 54 55 55 53 54 56 57 58 58 57 56 54 51 53 54 56 56 56 57 57 56 55 53 53 54 55 56 55 54
54 55 55 55 54 51 53 55 55 56 57 55 53 52 53 56 58 60 57 58 57 57 56 55 55 53 52 49 48 48 48 45
55 55 55 54 53 51 51 52 54 56 55 54 54 55 60 61 59 59 57 56 55 55 55 53 51 49 46 43 43 43 38 36
55 54 52 51 49 47 49 51 54 55 55 55 58 62 63 59 60 59 57 57 56 55 53 51 49 48 43 40 38 35 28 32
50 50 49 46 47 49 47 51 54 56 59 56 62 57 56 57 56 56 56 55 52 50 48 48 45 42 40 37 34 30 28 23
45 45 45 46 46 48 48 51 54 59 62 61 55 51 53 53 53 52 50 46 43 42 41 41 39 37 38 31 30 29 27 18
40 42 43 45 47 48 51 54 57 56 54 53 52 50 49 47 46 44 39 37 37 36 37 36 34 35 33 28 26 29 24 21
40 41 41 43 46 49 52 56 53 49 48 46 45 46 45 44 42 39 39 42 39 38 38 33 30 29 31 26 25 26 27 23
Wind_Direction
271 268 272 271 270 270 269 269 271 273 277 280 281 279 278 277 276 276 276 277 276 275 274 274 274 274 272 272 273 274 272 270
275 275 275 274 276 276 276 275 275 275 275 277 277 278 279 278 275 274 274 275 274 273 273 272 271 270 270 269 268 269 271 271
285 285 282 280 279 277 277 277 276 277 279 282 283 282 281 280 279 279 278 277 276 276 276 274 272 271 268 267 265 264 265 266
288 289 287 285 285 284 283 282 282 282 282 282 283 283 283 282 282 281 281 281 280 281 280 279 277 275 272 270 267 265 264 264
292 290 288 288 288 289 289 287 286 286 287 287 288 288 288 286 286 287 286 286 284 282 279 278 276 274 271 270 269 268 266 263
295 294 293 292 289 286 286 288 289 290 290 290 289 288 287 287 287 287 287 286 284 283 281 279 276 274 272 270 268 267 267 266
293 292 291 290 289 290 292 292 292 292 292 291 290 289 288 288 288 289 288 287 286 284 282 280 278 276 275 273 270 268 266 266
289 290 290 290 293 293 292 292 292 292 291 290 289 289 289 290 290 290 288 287 285 284 281 280 278 278 277 276 273 271 269 266
292 292 292 292 291 290 290 290 289 288 287 288 287 287 287 287 286 286 285 284 282 282 281 282 282 280 278 276 274 273 270 267
291 291 291 290 288 287 286 286 286 286 286 286 286 286 287 289 288 286 284 285 286 283 280 280 280 279 277 273 272 269 268 265
289 289 288 288 288 287 287 288 289 291 293 294 294 295 297 297 292 288 289 291 291 287 283 281 278 277 276 272 268 264 262 260
284 285 286 286 287 289 291 292 295 296 296 296 297 298 298 296 294 294 292 291 291 288 284 282 280 278 276 274 271 268 264 263
284 285 286 287 289 290 293 294 293 293 294 296 297 295 295 294 297 295 294 291 289 287 287 286 283 279 278 278 276 273 271 269
285 285 287 289 291 293 291 292 293 293 295 297 297 298 296 296 298 295 293 293 292 292 290 288 286 283 281 278 277 275 272 269
283 285 287 288 289 291 292 291 292 295 296 294 294 294 295 299 297 295 296 297 297 294 290 287 285 284 282 279 274 273 272 268
285 286 286 289 291 288 288 290 292 291 289 291 295 298 299 297 296 299 302 302 298 293 288 283 279 279 282 280 275 268 264 270
283 285 286 286 287 288 288 290 290 287 286 292 299 301 299 300 304 307 306 302 298 292 286 279 274 274 274 275 273 266 264 261
280 279 283 287 286 286 284 283 282 284 289 296 300 304 306 309 309 306 304 302 300 297 293 285 274 269 266 268 266 268 261 252
276 283 285 283 281 281 280 280 283 297 302 302 304 308 310 307 306 304 302 307 308 305 305 294 279 267 265 261 255 258 258 261
279 284 283 278 276 279 282 288 296 298 301 304 307 310 307 305 303 303 302 301 298 299 301 297 285 274 268 257 252 250 257 260
Height
5824 5823 5823 5822 5822 5821 5820 5819 5818 5817 5815 5814 5813 5813 5812 5811 5810 5810 5809 5808 5806 5806 5805 5803 5802 5801 5800 5801 5800 5799 5798 5799
5820 5819 5818 5818 5816 5816 5815 5814 5812 5811 5810 5808 5807 5806 5805 5804 5803 5802 5800 5799 5799 5798 5796 5795 5793 5792 5792 5792 5791 5790 5790 5790
5815 5814 5813 5812 5811 5810 5809 5808 5806 5804 5803 5802 5800 5799 5797 5796 5794 5793 5792 5791 5790 5788 5787 5786 5784 5782 5781 5781 5780 5779 5781 5780
5809 5808 5807 5806 5805 5804 5802 5800 5799 5797 5795 5794 5792 5791 5789 5786 5785 5783 5781 5780 5779 5777 5776 5774 5773 5772 5771 5771 5769 5770 5769 5770
5801 5800 5800 5799 5797 5796 5794 5793 5792 5790 5788 5786 5784 5781 5779 5777 5774 5773 5771 5769 5767 5765 5764 5762 5761 5760 5759 5758 5758 5757 5757 5758
5795 5793 5792 5790 5789 5787 5786 5784 5782 5780 5778 5776 5774 5772 5769 5767 5765 5763 5760 5758 5755 5753 5750 5749 5748 5747 5746 5745 5744 5744 5744 5745
5788 5787 5785 5783 5781 5779 5776 5774 5772 5770 5768 5766 5764 5761 5758 5755 5753 5750 5747 5745 5742 5739 5737 5735 5734 5733 5732 5731 5730 5730 5730 5730
5781 5779 5777 5775 5772 5770 5767 5765 5762 5761 5758 5755 5752 5749 5745 5742 5740 5737 5733 5731 5728 5726 5725 5723 5721 5719 5717 5716 5715 5714 5715 5715
5773 5770 5768 5765 5763 5760 5758 5756 5753 5750 5747 5744 5741 5737 5733 5730 5727 5724 5721 5718 5714 5712 5710 5708 5707 5704 5702 5700 5698 5698 5698 5698
5764 5761 5758 5755 5753 5750 5748 5745 5742 5739 5736 5732 5729 5725 5722 5719 5715 5711 5708 5705 5702 5699 5696 5693 5692 5690 5687 5684 5683 5682 5681 5681
5754 5752 5750 5747 5744 5741 5738 5735 5731 5727 5722 5718 5714 5710 5707 5704 5701 5698 5695 5691 5688 5683 5681 5678 5676 5674 5671 5667 5667 5665 5664 5662
5744 5742 5739 5736 5733 5731 5727 5723 5719 5714 5710 5705 5702 5699 5695 5691 5687 5684 5680 5676 5673 5669 5665 5662 5661 5659 5656 5651 5649 5648 5646 5645
5733 5730 5727 5725 5723 5719 5716 5711 5706 5701 5697 5694 5691 5687 5683 5679 5676 5671 5667 5662 5659 5655 5650 5647 5643 5643 5640 5636 5632 5631 5629 5628
5723 5719 5716 5713 5710 5707 5702 5697 5693 5688 5685 5682 5678 5674 5671 5668 5664 5659 5654 5649 5644 5640 5636 5632 5628 5627 5625 5622 5618 5613 5613 5612
5711 5708 5705 5701 5699 5695 5690 5685 5681 5678 5674 5671 5668 5665 5661 5656 5650 5645 5639 5634 5629 5625 5621 5617 5613 5611 5610 5607 5605 5601 5600 5599
5700 5696 5692 5690 5686 5682 5678 5675 5671 5667 5663 5660 5657 5652 5646 5640 5635 5630 5625 5619 5614 5609 5606 5602 5599 5597 5596 5594 5592 5592 5592 5591
5687 5685 5681 5678 5675 5671 5668 5664 5661 5657 5653 5649 5645 5639 5635 5628 5622 5616 5610 5604 5599 5594 5590 5587 5585 5585 5584 5582 5581 5582 5583 5583
5677 5673 5670 5667 5664 5660 5657 5654 5650 5647 5643 5639 5633 5627 5622 5615 5610 5604 5598 5593 5588 5583 5578 5575 5573 5573 5573 5573 5573 5573 5574 5575
5666 5663 5660 5656 5652 5650 5647 5644 5640 5636 5632 5627 5622 5617 5611 5605 5600 5594 5589 5583 5578 5574 5569 5565 5562 5562 5563 5563 5564 5565 5565 5565
5655 5652 5650 5646 5642 5640 5637 5634 5630 5626 5621 5617 5612 5606 5600 5595 5590 5585 5579 5574 5569 5565 5560 5556 5554 5554 5554 5554 5556 5557 5558 5558